TimeHST,TemperatureF,Dew PointF,Humidity,Sea Level PressureIn,VisibilityMPH,Wind Direction,Wind SpeedMPH,Gust SpeedMPH,PrecipitationIn,Events,Conditions,WindDirDegrees,DateUTC
12:53 AM,63.0,57.0,81,30.06,10.0,West,6.9,-,N/A,,Clear,280,2013-03-12 10:53:00
1:06 AM,62.6,57.2,82,30.06,10.0,West,6.9,-,N/A,,Scattered Clouds,280,2013-03-12 11:06:00
1:53 AM,62.1,57.0,84,30.04,10.0,West,8.1,-,N/A,,Partly Cloudy,280,2013-03-12 11:53:00
2:53 AM,61.0,55.9,83,30.03,10.0,West,8.1,-,N/A,,Clear,280,2013-03-12 12:53:00
3:53 AM,61.0,55.9,83,30.01,10.0,West,6.9,-,N/A,,Clear,270,2013-03-12 13:53:00
4:53 AM,60.1,55.0,83,30.02,10.0,WNW,6.9,-,N/A,,Clear,290,2013-03-12 14:53:00
5:53 AM,59.0,55.0,87,30.04,10.0,West,6.9,-,N/A,,Clear,270,2013-03-12 15:53:00
6:53 AM,60.1,55.0,83,30.04,10.0,West,9.2,-,N/A,,Clear,280,2013-03-12 16:53:00
7:53 AM,64.0,55.9,75,30.06,10.0,West,8.1,-,N/A,,Clear,280,2013-03-12 17:53:00
8:53 AM,71.1,59.0,66,30.08,10.0,NNE,6.9,-,N/A,,Clear,20,2013-03-12 18:53:00
9:53 AM,73.0,59.0,61,30.09,10.0,NE,6.9,-,N/A,,Clear,50,2013-03-12 19:53:00
10:53 AM,73.0,60.1,64,30.10,10.0,East,8.1,-,N/A,,Mostly Cloudy,90,2013-03-12 20:53:00
11:53 AM,73.0,59.0,61,30.09,10.0,ENE,9.2,-,N/A,,Overcast,70,2013-03-12 21:53:00
12:53 PM,75.0,59.0,57,30.07,10.0,NE,11.5,-,N/A,,Mostly Cloudy,50,2013-03-12 22:53:00
1:53 PM,73.0,59.0,61,30.05,10.0,East,9.2,-,N/A,,Overcast,80,2013-03-12 23:53:00
2:53 PM,75.0,60.1,60,30.02,10.0,NE,16.1,-,N/A,,Partly Cloudy,40,2013-03-13 00:53:00
3:53 PM,72.0,59.0,64,30.01,10.0,NE,13.8,-,N/A,,Mostly Cloudy,40,2013-03-13 01:53:00
4:53 PM,71.1,57.9,63,30.02,10.0,NNE,11.5,-,N/A,,Overcast,30,2013-03-13 02:53:00
5:53 PM,70.0,57.9,65,30.04,10.0,North,10.4,-,N/A,,Mostly Cloudy,10,2013-03-13 03:53:00
6:53 PM,69.1,57.9,68,30.06,10.0,North,11.5,-,N/A,,Overcast,10,2013-03-13 04:53:00
7:53 PM,66.0,57.0,73,30.07,10.0,North,5.8,-,N/A,,Clear,350,2013-03-13 05:53:00
8:53 PM,64.9,57.0,75,30.09,10.0,North,6.9,-,N/A,,Clear,360,2013-03-13 06:53:00
9:53 PM,66.0,57.0,73,30.11,10.0,North,6.9,-,N/A,,Mostly Cloudy,360,2013-03-13 07:53:00
10:53 PM,64.0,57.0,78,30.11,10.0,West,5.8,-,N/A,,Scattered Clouds,260,2013-03-13 08:53:00
11:53 PM,62.1,57.0,84,30.11,10.0,WNW,6.9,-,N/A,,Partly Cloudy,290,2013-03-13 09:53:00